Regional Weather Roundup
Issued by NWS

Home | Current Version | Previous Version | Graphics & Text | Print | Product List | Glossary On
Versions: 1 2 3 4 5 6 7 8 9 10 11 12 13 14 15 16 17 18 19 20 21 22 23 24 25 26 27 28 29 30 31 32 33 34 35 36 37 38 39 40 41 42 43 44 45 46 47 48 49 50
000
ASUS44 KMEG 261310
RWRTN
TENNESSEE HOURLY STATE WEATHER ROUNDUP
NATIONAL WEATHER SERVICE MEMPHIS TN
800 AM CDT THU MAR 26 2015

TNZ002-004-019-021-049-052-054-088>092-261400-
WEST TENNESSEE

CITY           SKY/WX    TMP DP  RH WIND       PRES   REMARKS
MEMPHIS INTL   CLOUDY    63  56  78 W5        29.92R
NWS MEMPHIS      N/A     61 N/A N/A MISG        N/A
JACKSON        CLOUDY    59  57  93 SW5       29.90R
DYERSBURG      CLOUDY    52  39  62 N12G23    29.93S
UNION CITY     CLOUDY    48  48 100 N10       29.93R
PARIS          PTSUNNY   52  52 100 NW9       29.91R
LEXINGTON      PTSUNNY   63  57  82 SW3       29.88S
SAVANNAH       CLOUDY    61  57  88 SW9       29.91R
$$

TNZ008-025-027-028-033-062-065-066-261400-
NORTH MIDDLE TENNESSEE

CITY           SKY/WX    TMP DP  RH WIND       PRES   REMARKS
NASHVILLE      PTSUNNY   65  56  72 SW5       29.88R
CLARKSVILLE    CLOUDY    54  52  93 N6        29.87F FOG
SMYRNA         MOSUNNY   63  55  75 SW10      29.88F
COOKEVILLE     PTSUNNY   63  57  82 SW8       29.90S
CROSSVILLE     CLOUDY    60  56  86 S8        29.93S
$$

TNZ061-075-076-078-094-096-097-261400-
SOUTH MIDDLE TENNESSEE

CITY           SKY/WX    TMP DP  RH WIND       PRES   REMARKS
FAYETTEVILLE   SUNNY     61  55  82 S9        29.93S
TULLAHOMA      SUNNY     63  55  77 SW8       29.93S
WINCHESTER     MOSUNNY   64  55  72 SW7       29.93F
MCMINNVILLE    PTSUNNY   63  61  94 SW7       29.91S
COLUMBIA       MOSUNNY   64  64 100 SW12      29.88S
SHELBYVILLE    MOSUNNY   63  57  82 S10       29.91F
$$

TNZ017-018-042-046-047-261400-
NORTHEAST TENNESSEE

CITY           SKY/WX    TMP DP  RH WIND       PRES   REMARKS
TRI CITIES     PTSUNNY   60  54  80 CALM      29.94R
ELIZABETHTON   CLOUDY    55  52  88 CALM      29.94S
$$

TNZ012-013-036-069-073-074-261400-
CENTRAL EAST TENNESSEE

CITY           SKY/WX    TMP DP  RH WIND       PRES   REMARKS
KNOXVILLE      PTSUNNY   63  55  75 SW13      29.91F
OAK RIDGE      CLOUDY    64  57  78 S10       29.93F
GATLINBURG     PTSUNNY   64  54  68 W3        29.91F
MORRISTOWN     SUNNY     57  54  88 S5        29.93F
$$

TNZ083-085-099-261400-
SOUTHEAST TENNESSEE

CITY           SKY/WX    TMP DP  RH WIND       PRES   REMARKS
CHATTANOOGA    CLOUDY    65  58  78 S7        29.95S
$$

SKY/WX REPORTED AS FAIR MEANS FEW OR NO CLOUDS BELOW
12 THOUSAND FEET.



USA.gov is the U.S. government's official web portal to all federal, state and local government web resources and services.